Find Starlink 34643

NORAD ID: 64923 Int'l Des: 2025-157 Owner: SPXS Country: US Constellation: starlink operational
LEOCIRCULAR

当前视图

正在加载3D地球...

About Starlink 34643

Starlink 34643 (NORAD 64923) is a starlink constellation satellite (v2 mini) launched Jul 26, 2025 by SPXS of US. It operates in LEO, CIRCULAR orbit with a mass of 575.00 kg.

关于 Starlink 34643

正在加载描述...

即将过境

Passes for default location (London). Set your location on the main map for personalized predictions.

高度历史

Loading altitude history...

两行轨道根数

1 64923U 25157V 26194.18523905 .00013694 00000-0 41557-3 0 9997
2 64923 53.1575 121.6304 0002355 60.9306 299.1932 15.34408096 55351
Epoch: Jul 13, 2026 • Age: 23 hours

当前状态

高度 466.5 km
远地点 / 近地点 N/A
速度 7.63 km/s
星下点 -15.19°S, 116.2°E
发射日期 Jul 26, 2025
运行时间 0.9 years
类型 internet

技术详情

分类 Payload
质量 575.00 kg
干质量 530.00 kg
总质量 575.00 kg
长度 0.30 m
直径 4.10 m
跨度 29.00 m
形状 Box + pan
制造商 SPXS
平台类型 Starlink V2MO
阶段状态 In Orbit
所有者/国家 SPXS/US

Most Searched